Location: Waco, TX
(31.5480°N, 97.1670°W)
Time: 13:33:13
(UTC-05:00)

ISS - Pass Details

Date: 06 May 2021
Orbit: 417 x 422 km, 51.6° (Epoch: 15 May)

Event Time Altitude Azimuth Distance (km) Brightness Sun altitude
Rises 08:21:43 0° 325° (NW) 2,369 -0.2 20.4°
Reaches altitude 10° 08:24:00 10° 336° (NNW) 1,503 -1.0 20.9°
Maximum altitude 08:27:00 29° 39° (NE) 793 -1.4 21.6°
Drops below altitude 10° 08:30:00 10° 103° (ESE) 1,498 0.6 22.2°
Sets 08:32:16 0° 114° (ESE) 2,359 1.0 22.7°
